Regional Weather Roundup
Issued by NWS Cleveland, OH

Home | Current Version | Previous Version | Graphics & Text | Print | Product List | Glossary On
Versions: 1 2 3 4 5 6 7 8 9 10 11 12 13 14 15 16 17 18 19 20 21 22 23 24 25 26 27 28 29 30 31 32 33 34 35 36 37 38 39 40 41 42 43 44 45 46 47 48 49 50
000
ASUS41 KCLE 252212
RWRCLE
OHIO REGIONAL WEATHER ROUNDUP
NATIONAL WEATHER SERVICE WILMINGTON, OH
600 PM EDT FRI MAY 25 2018

NOTE: "FAIR" INDICATES FEW OR NO CLOUDS BELOW 12,000 FEET WITH NO
SIGNIFICANT WEATHER AND/OR OBSTRUCTIONS TO VISIBILITY.

OHZ001>008-015>018-024>027-034-035-043-044-252300-
   NORTHWEST OHIO

CITY           SKY/WX    TMP DP  RH WIND       PRES   REMARKS
DEFIANCE       FAIR      85  51  31 S7        29.84F
FINDLAY        FAIR      86  53  32 S8        29.85F
TOLEDO EXPRESS FAIR      88  47  24 W13       29.83F
TOLEDO EXEC    FAIR      87  44  22 SW8       29.84F
LIMA           FAIR      85  51  31 VRB3      29.86F
$$

OHZ009>014-019>023-028>033-038-089-252300-
   NORTHEAST OHIO

CITY           SKY/WX    TMP DP  RH WIND       PRES   REMARKS
CLE-HOPKINS    FAIR      84  54  35 SW12      29.88F
CLE-LAKEFRONT  FAIR      80  51  36 NE3       29.86F
CUY CO. ARPT   SUNNY     84  52  32 N5        29.88F
LORAIN-ELYRIA  FAIR      84  49  29 SW8       29.87F
ASHTABULA      FAIR      80  53  39 NW7       29.89F
AKRON-CANTON   FAIR      84  58  40 SW8       29.90F
WOOSTER        FAIR      84  48  28 W8        29.90F
MANSFIELD      FAIR      83  51  33 VRB7      29.90F
YOUNGSTOWN     FAIR      84  51  31 SW10      29.89F
$$

OHZ042-051>053-060>062-070>072-077>081-252300-
  SOUTHWEST OHIO

CITY           SKY/WX    TMP DP  RH WIND       PRES   REMARKS
CINC-COVINGTON FAIR      84  58  40 SW6       29.89F
CINC-LUNKEN    FAIR      84  60  44 S8        29.88F
HAMILTON       FAIR      86  58  38 W5        29.88F
DAYTON         FAIR      83  55  38 S7        29.89F
WRIGHT-PAT AFB FAIR      87  49  26 SW10      29.87F
DAYTON GENERAL FAIR      87  49  26 VRB6      29.88F
WILMINGTON     FAIR      83  58  42 W8        29.90S
$$

OHZ036-037-039>041-045>050-054>059-063>069-073>076-082>088-252300-
  CENTRAL AND SOUTHEAST OHIO

CITY           SKY/WX    TMP DP  RH WIND       PRES   REMARKS
COLUMBUS       FAIR      87  53  31 SW10      29.87F
OSU AIRPORT    FAIR      85  54  34 W6        29.88F
BOLTON FIELD   SUNNY     84  54  34 SW9       29.89F
RICKENBACK AFB FAIR      85  56  36 MISG      29.87F
NEWARK         FAIR      87  56  34 W10       29.88F
MARION         FAIR      84  50  30 S7        29.88F
LANCASTER      FAIR      84  60  44 SW10      29.89F
ZANESVILLE     FAIR      85  61  44 SW7       29.89F
NEW PHILLY     FAIR      86  53  32 W6        29.90F
$$




USA.gov is the U.S. government's official web portal to all federal, state and local government web resources and services.